Location: ???????????
(44.4062°N, 135.3991°E)
Time: 02:01:36
(UTC+00:00)

SL-14 R/B - Pass Details

Date: 19 May 2025
Orbit: 501 x 530 km, 82.4° (Epoch: 16 June)

Event Time Altitude Azimuth Distance (km) Brightness Sun altitude
Exits shadow 15:59:05 51° 320° (NW) 659 3.8 -24.0°
Drops below altitude 10° 16:02:19 10° 1° (N) 1,765 6.9 -23.9°
Sets 16:04:30 0° 5° (N) 2,663 8.1 -23.7°
